Theta_e
342 345 347 349 348 349 349 346 347 348 347 347 345 347 347 347 345 347 348 347 347 345 342 344 345 343 345 343 342 342 336 337 339 339 343 339 334 341 342 343 342 337 339
346 348 349 349 348 349 350 348 349 348 349 348 348 347 346 345 346 347 348 349 346 346 345 342 344 345 345 345 344 343 344 341 336 337 336 344 341 337 336 343 344 344 338
351 350 352 351 351 348 348 350 350 352 352 350 349 349 349 348 348 349 349 348 347 345 340 337 342 343 343 344 345 344 342 343 343 339 336 334 339 339 334 334 332 337 344
348 348 349 351 351 349 351 353 353 353 351 348 347 347 347 347 347 347 347 347 346 345 345 345 341 343 343 342 342 344 344 343 343 344 342 339 336 335 334 333 338 335 334
348 349 350 350 349 351 353 354 354 353 351 349 347 343 344 343 342 343 345 345 346 345 345 345 342 343 344 343 342 342 342 344 343 344 344 344 342 339 337 336 334 338 337
348 349 352 346 342 352 354 354 354 353 352 350 347 342 341 338 340 344 344 343 342 344 345 347 347 346 344 343 343 344 343 342 342 342 342 345 345 344 340 339 338 337 337
350 350 350 350 348 350 351 353 354 354 349 348 344 336 335 338 338 342 336 338 338 340 344 346 347 346 346 344 343 344 344 345 344 342 341 341 344 344 344 342 341 340 338
349 350 350 350 350 353 353 354 354 351 349 346 340 336 335 334 340 334 339 335 340 337 336 339 341 339 342 343 344 344 341 342 345 346 345 342 341 343 345 345 343 342 341
351 353 352 351 352 347 347 345 346 346 341 341 341 338 335 336 336 335 335 337 337 337 336 334 334 335 337 338 340 343 343 341 342 343 346 346 343 342 343 345 345 344 343
352 353 353 352 348 339 335 339 342 341 341 336 338 340 340 339 338 338 334 334 335 333 332 331 330 332 333 333 334 338 337 337 340 341 345 347 346 345 343 343 344 345 344
352 353 352 345 339 338 334 332 337 338 338 338 338 337 337 337 338 338 338 332 330 329 327 326 326 326 327 329 331 333 333 329 332 337 341 344 344 346 346 345 344 344 344
352 352 347 342 337 334 332 334 333 338 338 338 338 338 336 335 334 334 334 330 328 324 322 322 323 325 326 327 329 330 329 324 323 327 338 341 342 344 345 347 346 345 345
351 351 344 339 335 331 329 330 335 337 338 338 338 334 333 332 331 330 328 326 324 323 324 324 324 325 325 326 327 327 329 330 325 324 334 330 343 345 344 343 346 346 346
354 349 345 339 333 329 330 333 337 338 338 336 334 333 330 327 326 324 324 324 327 326 325 325 325 325 325 326 326 325 327 327 328 327 324 326 336 343 344 345 345 345 346
351 346 340 337 330 330 333 336 338 338 334 333 331 328 324 321 321 322 323 324 325 328 328 325 324 324 325 325 325 326 326 327 328 328 325 325 331 336 340 341 342 343 344
337 342 337 331 333 331 336 336 337 333 331 329 326 324 322 320 322 324 324 325 324 325 328 324 323 323 324 324 324 325 325 325 326 327 326 324 324 327 333 337 340 341 344
335 337 333 332 329 334 337 334 329 329 328 327 325 321 321 324 325 325 325 325 325 324 326 324 324 323 323 323 323 323 323 324 326 326 327 327 326 325 329 334 339 341 339
337 339 333 330 331 337 335 330 326 328 328 326 322 321 320 322 325 325 325 325 324 324 324 324 324 324 324 323 323 323 323 324 325 327 328 328 328 331 332 331 334 337 338
336 335 333 330 336 338 333 327 325 329 327 324 321 320 319 323 325 325 325 324 324 324 324 324 324 322 323 323 324 324 323 323 324 325 327 327 329 329 326 327 326 331 337
336 337 333 333 338 337 330 329 329 329 326 323 322 320 319 323 325 325 325 324 324 323 321 320 320 321 321 322 323 324 324 324 324 325 326 326 326 327 327 327 324 327 336
338 336 333 338 337 333 329 329 329 326 323 321 321 319 319 324 322 322 322 322 321 320 319 319 320 320 321 322 324 325 324 325 325 325 326 325 325 327 327 327 329 329 336
337 333 336 336 335 331 327 327 327 325 323 322 320 318 323 323 322 321 320 319 318 318 319 319 321 323 324 323 324 325 325 325 327 325 325 326 326 328 333 333 334 334 334
334 335 336 336 335 331 326 328 327 324 323 321 317 320 323 323 322 321 320 318 320 317 317 318 319 320 322 324 324 325 325 325 326 326 327 330 332 333 335 335 337 337 336
333 334 336 337 334 333 327 328 327 323 321 317 317 321 323 321 321 314 315 318 319 316 316 316 319 319 322 323 324 325 325 325 325 326 327 335 335 337 338 338 339 338 337
334 336 337 336 334 332 328 327 325 322 317 316 317 321 320 319 314 314 315 317 316 315 318 318 319 320 326 324 324 325 325 325 327 330 335 336 340 340 342 343 343 339 337
335 336 336 333 331 333 329 326 321 316 315 314 316 320 318 314 312 312 311 313 312 313 313 316 320 320 324 324 325 325 325 326 329 332 335 336 339 340 343 343 344 339 337
Wind_Speed
9 8 9 8 8 8 10 10 11 12 14 14 15 15 15 14 13 13 13 16 15 15 16 16 17 19 17 16 17 18 19 19 20 21 21 19 19 18 17 16 15 14 14
11 11 10 9 9 8 8 10 13 12 12 15 18 16 17 16 14 13 14 15 16 16 16 17 20 21 22 21 20 20 20 19 21 22 21 22 20 20 20 20 19 17 16
14 14 12 11 8 9 11 11 14 11 11 13 15 16 15 15 15 15 15 15 16 18 18 17 21 24 25 26 24 23 22 20 21 23 23 23 25 25 22 22 22 21 20
9 9 9 9 9 11 10 10 11 10 12 13 13 13 13 15 16 17 17 16 16 16 16 21 21 24 26 27 28 27 27 25 24 24 26 25 24 25 24 23 23 22 22
8 8 10 10 10 9 9 9 9 9 12 13 15 15 14 14 15 13 13 12 14 15 14 16 17 20 22 26 28 29 29 30 29 27 27 27 26 26 25 24 24 24 23
10 10 8 10 9 8 9 8 8 9 10 11 15 15 16 15 12 8 8 9 12 12 12 11 11 14 17 19 25 28 29 30 31 32 31 31 28 28 27 26 25 25 25
13 11 11 12 10 9 11 12 11 11 10 8 14 17 12 8 10 4 13 11 12 13 11 12 11 12 15 18 18 20 25 31 31 32 33 32 31 29 28 27 27 27 26
15 13 13 11 9 10 11 9 8 9 8 8 8 11 6 9 2 21 6 16 6 14 16 13 13 17 17 17 18 22 23 23 26 31 34 35 33 32 32 29 27 27 27
13 13 12 9 11 11 7 7 6 6 10 9 7 4 4 4 17 3 15 9 16 14 16 19 19 17 17 18 20 20 21 22 22 23 28 34 37 35 33 34 32 30 29
11 12 12 13 10 6 7 5 5 6 7 10 9 4 5 9 5 8 10 19 13 20 20 20 21 20 20 21 21 22 24 24 24 25 23 28 32 35 35 34 34 33 32
10 11 11 8 9 6 6 6 5 5 4 8 9 11 9 9 9 6 12 18 23 22 23 23 23 25 25 23 23 23 25 27 26 26 26 25 24 31 36 37 36 35 35
9 9 9 9 9 8 6 4 5 4 5 8 9 11 12 9 13 12 12 19 22 25 24 28 29 27 26 25 25 27 29 29 28 27 26 26 28 28 33 35 36 36 36
11 11 11 11 10 8 7 5 3 4 5 7 10 12 11 12 14 18 20 21 17 29 27 27 28 28 29 28 28 29 29 30 32 30 28 28 27 26 27 31 35 35 33
14 15 16 13 12 8 6 5 4 4 5 8 10 10 12 15 17 19 20 20 15 22 28 28 28 30 30 28 30 31 32 32 31 32 31 29 28 27 26 25 28 33 35
15 22 18 13 11 7 6 5 5 4 5 7 9 11 13 17 18 19 18 19 21 15 16 34 32 32 31 30 30 30 31 32 33 33 31 29 28 28 28 30 30 30 29
10 27 16 13 9 7 6 4 5 5 5 7 10 14 16 17 20 19 17 21 23 27 17 26 36 39 36 35 33 31 33 32 35 35 38 37 34 31 29 29 29 30 27
18 31 16 12 8 8 6 6 7 6 6 9 11 14 17 18 19 18 20 23 25 29 20 37 36 35 41 38 37 34 33 34 33 34 33 33 35 34 31 30 29 29 29
25 23 16 12 11 8 9 10 9 6 7 10 13 17 18 20 20 19 21 26 30 33 35 34 40 36 33 35 37 33 32 32 30 28 28 31 32 30 30 31 31 31 32
29 22 15 13 11 11 12 11 9 7 9 11 12 16 19 21 22 22 25 31 31 37 38 37 36 40 38 32 25 29 30 32 33 32 32 32 30 30 31 34 34 33 32
22 18 15 13 13 12 11 9 10 9 10 11 14 17 19 20 21 23 27 32 34 40 39 33 32 34 33 31 24 23 22 25 30 28 27 29 28 28 28 34 37 34 31
17 15 14 14 13 12 11 11 10 11 11 14 16 18 19 20 20 22 28 33 38 39 37 31 29 28 27 25 20 18 22 22 22 25 25 26 28 29 32 35 32 35 32
16 15 15 15 13 12 13 12 12 11 10 13 16 20 19 19 21 26 29 37 35 37 35 29 25 23 26 25 23 18 17 12 5 19 26 26 25 25 22 25 26 31 32
16 16 15 14 14 12 12 11 11 9 12 14 17 16 17 19 21 25 31 33 36 38 30 31 28 31 33 27 23 17 18 15 15 21 17 20 18 20 19 21 23 26 29
16 16 15 14 12 10 10 10 10 10 12 14 14 14 15 18 20 27 28 30 39 42 35 40 38 41 37 27 23 22 17 16 17 21 19 4 12 15 17 18 21 23 23
15 14 12 11 9 7 9 8 8 10 11 14 13 13 13 15 21 25 24 27 38 39 43 43 43 38 20 9 14 16 12 8 4 12 9 8 6 6 8 10 12 18 18
12 10 10 8 7 5 7 6 6 7 11 13 13 12 14 17 19 22 21 23 28 37 41 44 40 43 25 8 6 9 9 6 6 7 7 6 5 8 5 6 10 12 13
Wind_Direction
291 301 306 315 324 327 327 331 329 319 314 315 314 310 299 290 289 280 284 283 276 276 272 266 250 250 257 264 264 262 255 250 249 246 248 243 241 239 241 240 241 236 235
289 293 298 300 311 321 327 338 347 337 327 322 316 308 302 299 290 282 280 283 280 273 272 263 252 253 256 260 265 265 262 259 257 253 249 250 246 241 236 238 241 242 238
289 293 288 285 293 314 324 328 331 329 328 324 319 314 305 299 294 288 282 278 278 278 279 272 262 254 254 257 259 263 263 261 261 258 254 251 248 248 243 239 239 239 242
300 314 320 308 294 299 307 315 321 323 324 328 326 321 313 306 295 291 285 277 277 279 279 285 271 258 256 256 257 258 261 262 261 262 260 256 254 252 248 244 241 239 237
300 305 311 319 315 300 294 300 306 310 316 322 325 319 314 312 305 301 298 293 289 287 284 280 277 264 264 258 256 257 256 259 261 262 260 261 259 256 252 249 246 243 240
283 296 304 315 312 307 312 307 299 300 302 311 318 316 314 311 304 310 324 328 318 314 309 302 294 281 277 267 256 253 255 255 257 258 260 257 261 260 255 252 249 247 245
279 284 288 301 313 314 309 307 306 304 306 319 320 323 321 328 318 18 330 322 324 323 322 318 315 302 295 294 282 258 260 255 254 254 255 256 255 257 258 255 253 250 249
271 276 285 292 296 305 310 313 311 313 312 331 328 316 327 340 341 325 336 323 349 329 318 312 311 310 301 296 288 279 273 265 257 253 254 253 252 253 254 254 255 255 252
265 279 275 287 298 305 317 329 327 331 320 318 334 324 328 328 326 340 320 322 319 321 318 312 311 307 298 293 291 285 285 282 269 263 255 250 253 250 251 253 252 253 255
256 274 278 278 271 291 316 318 326 335 328 320 326 316 297 302 319 319 316 315 314 313 313 309 305 302 300 295 287 283 282 280 276 272 266 249 247 251 249 251 253 252 254
270 271 269 269 283 284 298 313 328 330 328 314 319 316 314 309 294 276 304 316 311 310 310 307 303 298 296 293 289 283 280 281 278 272 267 258 250 246 248 248 248 249 251
262 268 260 266 274 278 304 315 323 329 320 307 306 307 310 315 312 307 301 307 306 307 309 303 298 296 294 292 286 281 281 282 280 274 267 264 258 251 244 247 247 247 248
247 249 251 260 262 275 292 292 307 308 301 300 302 309 310 307 306 302 301 303 304 304 305 302 298 295 292 288 287 285 283 280 279 271 265 265 259 256 249 245 247 249 249
256 255 250 252 254 265 275 279 285 292 294 306 305 309 314 311 309 305 302 306 305 307 304 303 303 298 292 287 287 284 282 279 279 272 267 263 258 254 253 251 250 248 246
291 275 261 256 250 260 257 265 277 296 314 310 308 311 315 316 312 307 303 301 300 302 300 307 304 301 292 286 284 283 279 277 273 269 268 267 261 257 255 254 250 249 249
254 275 254 247 242 244 248 265 272 283 304 299 310 316 323 320 309 306 303 302 301 299 294 292 294 296 291 285 282 277 275 276 271 267 268 268 262 258 256 255 249 248 245
231 252 246 238 244 241 247 256 264 269 280 299 309 321 323 318 311 313 310 307 305 307 294 294 291 284 284 278 277 272 270 271 270 264 264 266 262 258 254 253 247 244 247
247 241 236 241 239 235 235 245 244 245 280 300 316 324 325 321 315 314 313 308 306 300 290 291 294 287 281 276 269 263 263 268 268 260 259 263 262 255 250 251 248 247 249
231 236 233 228 227 226 237 240 244 252 279 296 311 318 321 321 315 310 310 304 301 302 296 295 295 295 288 283 258 260 252 253 260 259 260 257 255 255 257 254 250 246 247
220 215 218 220 221 221 229 233 242 254 274 301 316 319 321 319 310 304 308 305 306 308 304 298 293 291 292 288 270 253 250 246 251 256 256 248 251 253 257 255 246 242 242
209 212 205 210 210 214 221 230 240 261 287 307 319 322 321 316 309 314 309 309 309 309 307 301 299 293 286 285 256 246 238 247 249 249 251 250 248 244 247 247 240 234 235
203 196 202 205 206 217 227 239 251 271 294 306 321 321 320 321 322 318 315 317 311 307 303 302 295 290 283 272 265 234 224 236 255 255 246 250 240 232 231 225 228 225 229
190 195 201 203 210 217 229 244 255 273 300 312 321 314 320 322 329 325 323 327 329 326 314 314 304 297 289 271 260 235 219 226 238 260 289 247 224 221 222 222 222 227 225
191 195 198 203 213 224 231 245 260 282 302 316 316 311 319 327 333 335 330 333 341 342 336 335 321 315 297 255 244 235 226 234 260 273 275 254 197 209 211 219 224 227 219
189 192 190 198 211 213 237 255 273 301 312 323 318 316 328 338 338 345 341 342 347 343 360 353 348 358 2 239 232 214 213 218 274 284 251 230 192 186 179 200 207 214 214
184 182 178 186 197 207 248 255 291 312 323 323 326 331 336 340 345 357 356 349 344 347 351 348 354 11 21 3 208 206 219 219 262 285 23 207 205 178 139 100 136 154 160